Location: Unspecified
(38.6830°S, 0.0000°E)
Time: 05:33:14
(UTC+00:00)

Envisat - Pass Details

Date: 05 June 2019
Orbit: 764 x 766 km, 98.1° (Epoch: 19 June)

Event Time Altitude Azimuth Distance (km) Brightness Sun altitude
Rises 06:20:47 0° 17° (NNE) 3,222 6.8 -9.7°
Reaches altitude 10° 06:23:04 10° 17° (NNE) 2,304 6.1 -9.3°
Maximum altitude 06:28:09 83° 104° (ESE) 785 3.1 -8.4°
Drops below altitude 10° 06:33:19 10° 191° (S) 2,336 5.2 -7.5°
Sets 06:35:39 0° 191° (S) 3,270 5.9 -7.1°
